Change the Weather History Date:

Tuesday, July 23, 2013

  Actual Average Record
Temperature  
Mean Temperature 62 °F 60 °F  
Max Temperature 69 °F 68 °F 93 °F (2004)
Min Temperature 55 °F 51 °F 44 °F (1973)
Degree Days  
Heating Degree Days 3 6  
Month to date heating degree days 78 152  
Since 1 June heating degree days 258 446  
Since 1 July heating degree days 78 152  
Cooling Degree Days 0 0  
Month to date cooling degree days 6 0  
Year to date cooling degree days 16 4  
Since 1 June cooling degree days 13 3  
Growing Degree Days 12 (Base 50)    
Moisture  
Dew Point 53 °F    
Average Humidity 78    
Maximum Humidity 93    
Minimum Humidity 63    
Precipitation  
Precipitation 0.00 in 0.06 in 0.26 in (2007)
Month to date precipitation T 1.53  
Year to date precipitation 58.80 53.78  
Sea Level Pressure  
Sea Level Pressure 30.09 in    
Wind  
Wind Speed 5 mph (NW)    
Max Wind Speed 14 mph    
Max Gust Speed 17 mph    
Visibility 6 miles    
Events      
T = Trace of Precipitation, MM = Missing Value Source: NWS Daily Summary

Daily Weather History Graph

Daily Weather History Graph

Search for Another Location

Airport or City:

Trip Planner

Search our weather history database for the weather conditions in past years. The results will help you decide how hot, cold, wet, or windy it might be!

Date:

Astronomy

Jul. 23, 2013 Rise Set
Actual Time 5:43 AM PDT 9:04 PM PDT
Civil Twilight 5:06 AM PDT 9:42 PM PDT
Nautical Twilight 4:16 AM PDT 10:32 PM PDT
Astronomical Twilight 3:11 AM PDT 11:35 PM PDT
Moon 9:23 PM PDT (7/23) 7:09 AM PDT (7/23)
Length of Visible Light 16h 36m
Length of Day
15h 20m
Full, 98% of the Moon is Illuminated
Jul 23
Full
Jul 29
Last Quarter
Aug 6
New
Aug 14
First Quarter
Aug 20
Full

Hourly Weather History & Observations

Time (PDT) Temp. Dew Point Humidity Pressure Visibility Wind Dir Wind Speed Gust Speed Precip Events Conditions
12:53 AM 57.0 °F 52.0 °F 83% 30.09 in 6.0 mi Calm Calm - N/A   Haze
1:53 AM 57.0 °F 52.0 °F 83% 30.09 in 5.0 mi Calm Calm - N/A   Haze
2:45 AM 57.2 °F 51.8 °F 82% 30.08 in 5.0 mi Calm Calm - N/A   Haze
2:53 AM 57.0 °F 52.0 °F 83% 30.08 in 5.0 mi Calm Calm - N/A   Haze
3:53 AM 57.0 °F 53.1 °F 87% 30.08 in 4.0 mi Calm Calm - N/A   Overcast
4:53 AM 57.0 °F 52.0 °F 83% 30.09 in 5.0 mi NNW 3.5 mph - N/A   Haze
5:53 AM 55.9 °F 52.0 °F 87% 30.08 in 4.0 mi North 4.6 mph - N/A   Overcast
6:13 AM 55.4 °F 51.8 °F 88% 30.08 in 2.5 mi Calm Calm - N/A   Overcast
6:53 AM 55.9 °F 53.1 °F 90% 30.09 in 2.5 mi NW 3.5 mph - N/A   Overcast
7:06 AM 55.4 °F 51.8 °F 88% 30.09 in 3.0 mi NW 3.5 mph - N/A   Overcast
7:41 AM 57.2 °F 53.6 °F 88% 30.10 in 2.0 mi Calm Calm - N/A   Overcast
7:53 AM 57.0 °F 53.1 °F 87% 30.10 in 2.0 mi West 3.5 mph - N/A   Overcast
8:17 AM 57.2 °F 53.6 °F 88% 30.10 in 4.0 mi North 4.6 mph - N/A   Overcast
8:53 AM 57.9 °F 53.1 °F 84% 30.11 in 4.0 mi Calm Calm - N/A   Haze
9:53 AM 59.0 °F 53.1 °F 81% 30.11 in 6.0 mi WNW 3.5 mph - N/A   Haze
10:50 AM 60.8 °F 53.6 °F 77% 30.10 in 7.0 mi North 3.5 mph - N/A   Overcast
10:53 AM 61.0 °F 54.0 °F 78% 30.11 in 6.0 mi WNW 6.9 mph - N/A   Haze
11:53 AM 64.9 °F 55.0 °F 70% 30.10 in 8.0 mi Calm Calm - N/A   Overcast
12:22 PM 66.2 °F 55.4 °F 68% 30.09 in 8.0 mi Variable 3.5 mph - N/A   Partly Cloudy
12:53 PM 66.9 °F 55.9 °F 68% 30.09 in 7.0 mi West 8.1 mph - N/A   Clear
1:53 PM 68.0 °F 55.9 °F 65% 30.09 in 7.0 mi NW 8.1 mph - N/A   Clear
2:53 PM 66.0 °F 55.0 °F 68% 30.09 in 6.0 mi West 8.1 mph - N/A   Haze
3:37 PM 64.4 °F 55.4 °F 73% 30.09 in 7.0 mi NW 11.5 mph 17.3 mph N/A   Mostly Cloudy
3:44 PM 64.4 °F 53.6 °F 68% 30.09 in 7.0 mi NW 10.4 mph - N/A   Scattered Clouds
3:53 PM 64.9 °F 55.0 °F 70% 30.09 in 7.0 mi WNW 9.2 mph - N/A   Mostly Cloudy
4:53 PM 63.0 °F 54.0 °F 72% 30.08 in 7.0 mi NW 9.2 mph - N/A   Mostly Cloudy
5:04 PM 62.6 °F 53.6 °F 72% 30.07 in 7.0 mi NW 10.4 mph - N/A   Scattered Clouds
5:53 PM 63.0 °F 53.1 °F 70% 30.08 in 8.0 mi NW 8.1 mph - N/A   Clear
6:37 PM 62.6 °F 53.6 °F 72% 30.07 in 9.0 mi North 10.4 mph - N/A   Mostly Cloudy
6:46 PM 62.6 °F 51.8 °F 68% 30.07 in 9.0 mi North 10.4 mph - N/A   Scattered Clouds
6:53 PM 62.1 °F 53.1 °F 72% 30.07 in 9.0 mi North 5.8 mph - N/A   Scattered Clouds
7:53 PM 61.0 °F 52.0 °F 72% 30.07 in 8.0 mi North 5.8 mph - N/A   Clear
8:53 PM 57.9 °F 52.0 °F 81% 30.07 in 7.0 mi North 4.6 mph - N/A   Clear
9:53 PM 55.0 °F 50.0 °F 83% 30.09 in 8.0 mi NNW 4.6 mph - N/A   Clear
10:40 PM 55.4 °F 51.8 °F 88% 30.09 in 8.0 mi Calm Calm - N/A   Mostly Cloudy
10:53 PM 55.9 °F 51.1 °F 84% 30.09 in 8.0 mi NNE 3.5 mph - N/A   Overcast
11:07 PM 57.2 °F 51.8 °F 82% 30.09 in 8.0 mi North 3.5 mph - N/A   Overcast
11:53 PM 57.0 °F 52.0 °F 83% 30.09 in 8.0 mi NNW 6.9 mph - N/A   Overcast